User: anonymous   Login
Location: PACMO
(41.3967°N, 90.3760°W)
Time: 15:14:29
(UTC-06:00)
Language:

NOAA 19 - Orbit

View from above orbital plane
View from above orbital plane
View from above satellite
View from above satellite

Ground track
Ground track

The orbit data is extracted from the following two-line orbital elements,

1 33591U 09005A   16344.45479589  .00000137  00000-0  99638-4 0  9994
2 33591  99.0656 302.8725 0014983  85.8338 274.4545 14.12133917403870
Epoch (UTC): 09 December 2016 10:54:54
Eccentricity: 0.0014983
inclination: 99.0656°
perigee height: 841 km
apogee height: 863 km
right ascension of ascending node: 302.8725°
argument of perigee: 85.8338°
revolutions per day: 14.12133917
mean anomaly at epoch: 274.4545°
orbit number at epoch: 40387

The dashed part of the orbit path shows where the satellite is in the earth's shadow,  

DLR